This demonstration page uses our WeatherBlox Daily Observations layout. Learn more.

Left ArrowRight Arrow

Hourly Observations for January 25, 2018

Temp ( °F °C ) Dew Point ( °F °C ) Humidity (%) Winds ( mph kmh ) Pressure ( in mb ) Visibility ( mi km ) Precip ( " mm )
12:53 am 00:53 Clear 32 0 26 -3.3 79 79 W 6 9 30.11 1020 10 16 0.00 0.00
1:53 am 01:53 Clear 31 -0.6 25 -3.9 79 79 W 3 6 30.11 1020 10 16 0.00 0.00
2:53 am 02:53 Clear 27 -2.8 23 -5 85 85 NNW 3 6 30.10 1019 10 16 0.00 0.00
3:53 am 03:53 Clear 27 -2.8 23 -5 85 85 S 7 11 30.10 1019 10 16 0.00 0.00
4:53 am 04:53 Clear 24 -4.4 21 -6.1 88 88 Calm 30.09 1019 10 16 0.00 0.00
5:53 am 05:53 Clear 29 -1.7 24 -4.4 82 82 SW 5 7 30.08 1019 10 16 0.00 0.00
6:53 am 06:53 Clear 26 -3.3 23 -5 88 88 SW 3 6 30.08 1019 10 16 0.00 0.00
7:53 am 07:53 Sunny 24 -4.4 21 -6.1 88 88 SW 3 6 30.09 1019 10 16 0.00 0.00
8:53 am 08:53 Sunny 28 -2.2 25 -3.9 88 88 Calm 30.08 1019 10 16 0.00 0.00
9:53 am 09:53 Sunny 33 0.6 27 -2.8 78 78 S 5 7 30.07 1018 10 16 0.00 0.00
10:53 am 10:53 Sunny 40 4.4 29 -1.7 65 65 Calm 30.06 1018 10 16 0.00 0.00
11:53 am 11:53 Sunny 43 6.1 30 -1.1 60 60 S 9 15 30.02 1017 10 16 0.00 0.00
12:53 pm 12:53 Sunny 49 9.4 26 -3.3 41 41 S 8 13 29.95 1014 10 16 0.00 0.00
1:53 pm 13:53 Sunny 52 11.1 24 -4.4 34 34 S 9 15 29.92 1013 10 16 0.00 0.00
2:53 pm 14:53 Sunny 51 10.6 22 -5.6 32 32 S 13 20 29.91 1013 10 16 0.00 0.00
3:53 pm 15:53 Sunny 53 11.7 24 -4.4 32 32 S 10 17 29.90 1012 10 16 0.00 0.00
4:53 pm 16:53 Sunny 52 11.1 24 -4.4 34 34 S 8 13 29.88 1012 10 16 0.00 0.00
5:53 pm 17:53 Clear 49 9.4 23 -5 36 36 SSE 10 17 29.85 1011 10 16 0.00 0.00
6:53 pm 18:53 Clear 49 9.4 20 -6.7 32 32 S 10 17 29.85 1011 10 16 0.00 0.00
7:53 pm 19:53 Clear 48 8.9 19 -7.2 32 32 S 12 19 29.85 1011 10 16 0.00 0.00
8:53 pm 20:53 Clear 49 9.4 20 -6.7 32 32 S 12 19 29.84 1010 10 16 0.00 0.00
9:53 pm 21:53 Clear 48 8.9 18 -7.8 30 30 S 15 24 29.82 1010 10 16 0.00 0.00
10:53 pm 22:53 Clear 47 8.3 17 -8.3 30 30 S 17 28 29.81 1009 10 16 0.00 0.00
11:53 pm 23:53 Clear 46 7.8 17 -8.3 31 31 S 13 20 29.80 1009 10 16 0.00 0.00

Powered by AerisWeather